Temp
54 54 54 55 56 58 59 61 61 62 64 65 67 68 68 68 68 69 68 68 67 68
53 53 53 53 54 56 57 61 62 62 62 64 65 66 66 66 67 68 68 67 67 67
52 53 53 54 53 54 56 57 58 60 61 62 62 63 63 64 66 66 67 67 66 66
51 52 52 52 52 53 54 55 57 59 60 61 61 61 60 61 64 65 65 66 66 66
51 50 50 50 51 52 52 54 56 57 58 60 60 61 61 61 63 63 64 65 65 65
48 48 47 48 49 50 50 52 53 54 56 58 59 60 60 60 62 62 64 64 65 65
47 47 47 47 48 48 49 49 50 52 55 56 58 59 60 60 60 61 62 64 64 65
46 47 49 48 48 48 49 50 51 52 53 53 55 58 58 59 59 60 60 62 64 65
47 49 48 48 48 48 48 48 49 49 50 50 54 53 53 55 58 60 60 60 62 64
48 47 48 49 48 47 46 46 46 48 48 49 51 50 49 53 56 57 58 59 60 62
47 47 48 48 47 47 46 45 44 45 47 47 50 49 48 51 55 55 56 58 60 61
47 46 46 46 46 46 44 44 44 46 47 47 49 48 47 47 53 55 56 59 60 61
46 45 45 45 46 46 45 44 45 45 46 48 49 49 45 46 52 55 55 58 59 52
45 44 46 46 46 45 44 44 44 45 47 48 49 50 46 45 54 54 55 56 57 59
MSLP
1010.70 1010.43 1010.24 1010.01 1009.67 1009.41 1008.92 1008.40 1007.88 1007.65 1007.22 1006.86 1006.76 1006.58 1006.67 1006.74 1007.05 1007.21 1007.35 1007.54 1007.85 1007.96
1010.97 1010.73 1010.38 1009.89 1009.60 1009.17 1008.63 1008.12 1007.40 1007.05 1006.86 1006.62 1006.09 1005.82 1005.80 1006.16 1006.21 1006.16 1006.35 1006.57 1006.79 1006.84
1010.53 1010.29 1010.05 1009.75 1009.38 1008.95 1008.50 1008.00 1007.50 1007.01 1006.53 1006.08 1005.92 1005.72 1005.35 1005.28 1005.31 1005.20 1005.24 1005.54 1006.02 1006.16
1010.45 1010.09 1009.78 1009.45 1009.08 1008.69 1008.25 1007.89 1007.26 1006.75 1006.13 1005.60 1005.23 1004.93 1004.76 1004.56 1004.32 1004.14 1004.20 1004.41 1004.70 1004.70
1010.21 1009.98 1009.80 1009.44 1008.96 1008.51 1007.92 1007.38 1006.74 1006.08 1005.45 1004.86 1004.21 1003.84 1003.64 1003.56 1003.33 1003.22 1003.10 1003.16 1003.44 1003.65
1010.35 1009.97 1009.54 1009.06 1008.56 1007.91 1007.34 1006.82 1006.28 1005.71 1004.86 1004.11 1003.60 1003.17 1002.89 1002.86 1002.70 1002.54 1002.40 1002.47 1002.40 1002.52
1009.92 1009.46 1009.02 1008.43 1007.75 1007.02 1006.30 1005.68 1005.23 1004.77 1004.02 1003.58 1003.10 1002.63 1002.21 1001.98 1001.92 1001.77 1001.45 1001.24 1001.27 1001.23
1009.21 1008.59 1007.84 1007.16 1006.60 1006.07 1005.57 1004.98 1004.42 1003.90 1003.37 1003.04 1002.64 1001.96 1001.55 1001.25 1000.87 1000.65 1000.39 1000.39 1000.19 999.79
1008.27 1007.60 1007.02 1006.39 1005.82 1005.34 1004.85 1004.38 1003.86 1003.18 1002.60 1002.08 1001.56 1001.09 1000.66 1000.49 999.89 999.81 999.57 999.28 998.97 998.78
1007.55 1006.83 1006.11 1005.42 1004.79 1004.27 1003.82 1003.47 1002.96 1002.11 1001.51 1001.04 1000.67 1000.27 999.89 999.35 998.90 998.73 998.65 998.24 998.06 997.45
1006.65 1005.84 1005.14 1004.47 1003.77 1003.07 1002.72 1002.35 1001.91 1001.35 1000.68 1000.18 999.72 999.23 998.76 998.35 997.71 997.79 997.65 997.16 996.93 996.30
1006.22 1005.27 1004.34 1003.39 1002.41 1001.74 1001.50 1001.22 1000.89 1000.38 999.78 999.21 998.61 998.04 997.52 997.50 996.65 996.93 996.56 996.02 995.65 995.20
1005.68 1004.65 1003.59 1002.63 1001.54 1000.98 1000.71 1000.32 1000.01 999.52 999.02 998.37 997.73 996.87 996.61 996.48 996.53 996.04 995.52 995.08 994.33 994.21
1005.03 1004.03 1003.03 1002.18 1001.20 1000.61 1000.14 999.74 999.30 998.70 998.16 997.71 996.99 996.30 996.04 995.92 995.44 995.19 994.76 993.96 993.78 993.24
Wind_Speed
7 4 5 5 6 6 6 7 7 7 7 8 8 8 8 7 8 9 10 13 12 10
6 6 8 9 6 6 8 8 10 8 10 10 10 9 8 7 9 10 11 11 13 13
9 9 9 9 10 11 10 10 10 10 10 9 9 9 9 8 10 11 9 9 13 14
9 10 10 9 10 11 11 12 12 12 11 11 11 10 10 10 10 11 11 11 13 16
12 11 12 13 13 12 14 12 13 12 13 13 12 11 11 11 10 11 12 13 16 16
12 12 12 13 13 13 10 12 14 16 16 14 13 12 12 12 12 12 12 13 15 17
12 13 13 14 14 15 15 16 15 16 16 14 14 14 13 12 13 14 13 14 16 18
13 13 14 13 13 13 14 15 16 17 17 15 16 13 15 14 15 16 12 13 16 19
13 14 14 15 15 15 14 15 17 17 17 17 14 21 21 18 11 13 13 14 16 20
14 15 15 16 16 16 15 14 15 16 15 15 16 20 21 27 14 10 13 14 16 18
16 17 17 17 17 16 14 13 13 15 14 14 14 23 23 27 12 9 14 14 19 15
16 17 18 18 18 15 12 11 12 14 15 15 15 20 20 14 6 11 14 14 16 13
17 17 17 18 15 10 10 11 10 13 14 16 16 18 15 8 7 9 10 11 11 17
16 16 14 15 12 9 9 9 11 12 12 14 15 13 13 13 6 8 8 4 9 9
Wind_Direction
337 331 315 302 307 302 293 288 284 268 245 232 229 221 217 222 230 239 240 237 230 229
311 317 310 307 295 295 296 297 299 288 264 254 234 218 217 222 230 229 234 239 239 225
317 311 305 302 300 300 298 299 300 295 284 267 251 243 226 221 223 229 228 228 240 235
308 301 298 294 291 288 289 283 278 281 283 279 263 249 236 230 227 228 226 225 236 236
317 321 313 302 291 285 280 282 285 277 270 270 271 261 251 249 241 234 232 224 227 235
293 287 287 290 291 281 275 282 285 288 275 265 262 260 255 253 254 247 238 235 233 231
288 286 281 280 284 289 290 288 283 275 266 268 266 259 249 246 250 248 243 240 239 235
283 282 283 283 283 284 286 287 280 275 267 271 267 262 255 249 249 244 242 252 253 244
292 297 293 288 283 278 276 280 279 273 267 265 260 258 253 251 258 260 262 259 265 254
298 293 290 288 282 276 274 276 277 278 260 263 268 263 259 259 254 262 263 260 260 252
305 301 296 291 283 274 269 271 276 279 267 266 268 262 257 250 243 256 259 255 252 239
301 299 298 293 289 275 267 269 275 279 269 269 274 267 258 235 238 248 254 253 238 228
301 298 301 304 305 283 268 269 277 279 276 281 274 272 262 238 235 246 249 250 240 214
300 300 301 310 307 286 280 280 285 281 273 275 273 279 262 235 238 245 251 268 249 203